Location: Austin
(30.3000°N, 97.7500°W)
Time: 02:51:24
(UTC-05:00)

Cosmos 2173 Rocket - Pass Details

Date: 18 March 2023
Orbit: 945 x 999 km, 82.9° (Epoch: 01 April)

Event Time Altitude Azimuth Distance (km) Brightness Sun altitude
Rises 21:41:59 0° 350° (N) 3,720 7.4 -26.6°
Reaches altitude 10° 21:44:32 10° 348° (NNW) 2,770 6.7 -27.1°
Maximum altitude 21:50:50 67° 267° (W) 1,075 4.3 -28.4°
Enters shadow 21:54:56 23° 191° (S) 1,979 5.5 -29.3°
